Lynchburg, VA

9:01 PM EST on November 12, 2019 (GMT -0500)
Lynchburg Regional-Glenn

Weather History for KLYH - September, 2019

Change the Weather History Date:

Monday, September 30, 2019

  Actual Average Record
Temperature  
Mean Temperature 76 °F 62 °F  
Max Temperature 81 °F 73 °F 89 °F (1919)
Min Temperature 70 °F 50 °F 36 °F (1942)
Degree Days  
Heating Degree Days 0 5  
Month to date heating degree days 5 55  
Since 1 July heating degree days 5 61  
Cooling Degree Days 11 1  
Month to date cooling degree days 300 118  
Year to date cooling degree days 1515 1016  
Growing Degree Days 24 (Base 50)    
Moisture  
Dew Point 69 °F    
Average Humidity 81    
Maximum Humidity 100    
Minimum Humidity 62    
Precipitation  
Precipitation 0.09 in 0.12 in 2.89 in (2010)
Month to date precipitation 0.17 3.88  
Year to date precipitation 27.75 31.81  
Snow  
Snow 0.00 in - - ()
Month to date snowfall 0.0  
Since 1 July snowfall 0.0  
Since 1 September snowfall 0.0  
Snow Depth 0.00 in    
Sea Level Pressure  
Sea Level Pressure 30.21 in    
Wind  
Wind Speed 3 mph (East)    
Max Wind Speed 10 mph    
Max Gust Speed 15 mph    
Visibility 9 miles    
Events Rain , Thunderstorm    
T = Trace of Precipitation, MM = Missing Value Source: NWS Daily Summary

Daily Weather History Graph

Daily Weather History Graph

Search for Another Location

Airport or City:

Astronomy

Sep. 30, 2019 Rise Set
Actual Time 7:11 AM EDT 7:01 PM EDT
Civil Twilight 6:45 AM EDT 7:27 PM EDT
Nautical Twilight 6:14 AM EDT 7:58 PM EDT
Astronomical Twilight 5:44 AM EDT 8:28 PM EDT
Moon 9:11 AM EDT (9/30) 8:39 PM EDT (9/30)
Length of Visible Light 12h 42m
Length of Day
11h 50m
Waxing Crescent, 5% of the Moon is Illuminated
Sep 30
Waxing Crescent
Oct 5
First Quarter
Oct 13
Full
Oct 21
Last Quarter
Oct 27
New

Hourly Weather History & Observations

Time (EDT) Temp. Heat Index Dew Point Humidity Pressure Visibility Wind Dir Wind Speed Gust Speed Precip Events Conditions
12:19 AM 70.0 °F - 69.1 °F 97% 30.25 in 10.0 mi Calm Calm - N/A   Mostly Cloudy
12:54 AM 70.0 °F - 69.1 °F 97% 30.22 in 10.0 mi Calm Calm - N/A   Overcast
1:54 AM 71.1 °F - 69.1 °F 93% 30.22 in 10.0 mi Calm Calm - N/A   Mostly Cloudy
2:54 AM 72.0 °F - 70.0 °F 93% 30.21 in 10.0 mi Calm Calm - N/A   Overcast
3:01 AM 72.0 °F - 70.0 °F 93% 30.24 in 10.0 mi Calm Calm - N/A   Overcast
3:31 AM 72.0 °F - 70.0 °F 93% 30.23 in 10.0 mi Calm Calm - N/A   Mostly Cloudy
3:54 AM 72.0 °F - 70.0 °F 93% 30.19 in 9.0 mi ESE 3.5 mph - N/A   Overcast
4:41 AM 72.0 °F - 70.0 °F 93% 30.23 in 8.0 mi East 3.5 mph - N/A   Overcast
4:50 AM 71.6 °F - 69.8 °F 94% 30.23 in 7.0 mi Calm Calm - N/A   Overcast
4:54 AM 72.0 °F - 70.0 °F 93% 30.20 in 7.0 mi Calm Calm - N/A   Overcast
5:26 AM 72.0 °F - 70.0 °F 93% 30.23 in 6.0 mi Calm Calm - N/A   Mostly Cloudy
5:39 AM 72.0 °F - 70.0 °F 93% 30.23 in 5.0 mi Calm Calm - N/A   Mostly Cloudy
5:54 AM 71.1 °F - 70.0 °F 96% 30.20 in 5.0 mi Calm Calm - N/A   Overcast
6:54 AM 71.1 °F - 70.0 °F 96% 30.22 in 5.0 mi East 3.5 mph - N/A   Overcast
7:01 AM 71.1 °F - 70.0 °F 96% 30.25 in 5.0 mi East 3.5 mph - N/A   Overcast
7:54 AM 71.1 °F - 70.0 °F 96% 30.23 in 3.0 mi ESE 4.6 mph - N/A   Overcast
8:25 AM 71.1 °F - 69.1 °F 93% 30.26 in 6.0 mi Calm Calm - N/A   Overcast
8:37 AM 72.0 °F - 69.1 °F 91% 30.26 in 8.0 mi ESE 4.6 mph - N/A   Overcast
8:54 AM 72.0 °F - 68.0 °F 87% 30.24 in 9.0 mi East 4.6 mph - N/A   Overcast
9:54 AM 72.0 °F - 68.0 °F 87% 30.25 in 10.0 mi ESE 5.8 mph - N/A   Overcast
10:21 AM 72.0 °F - 66.9 °F 84% 30.28 in 10.0 mi ESE 4.6 mph - N/A   Overcast
10:54 AM 72.0 °F - 66.9 °F 84% 30.26 in 10.0 mi ESE 3.5 mph - 0.00 in   Overcast
11:54 AM 73.9 °F - 66.9 °F 79% 30.25 in 10.0 mi Calm Calm - N/A   Overcast
12:06 PM 73.0 °F - 66.9 °F 81% 30.27 in 3.0 mi Calm Calm - 0.02 in Rain , Thunderstorm Thunderstorms and Rain
12:10 PM 72.0 °F - 68.0 °F 87% 30.28 in 1.5 mi Calm Calm - 0.05 in Rain , Thunderstorm Heavy Thunderstorms and Rain
12:20 PM 72.0 °F - 69.1 °F 91% 30.27 in 10.0 mi NNE 3.5 mph - 0.09 in Rain , Thunderstorm Light Rain
12:54 PM 73.9 °F - 69.1 °F 85% 30.23 in 10.0 mi East 3.5 mph - 0.09 in   Mostly Cloudy
1:54 PM 77.0 °F - 66.9 °F 71% 30.20 in 10.0 mi Variable 3.5 mph - N/A   Mostly Cloudy
2:54 PM 80.1 °F 82.3 °F 66.9 °F 64% 30.18 in 10.0 mi Variable 5.8 mph - N/A   Mostly Cloudy
3:54 PM 80.1 °F 82.3 °F 66.9 °F 64% 30.17 in 10.0 mi NE 8.1 mph - N/A   Mostly Cloudy
4:54 PM 77.0 °F - 66.9 °F 71% 30.17 in 10.0 mi ENE 5.8 mph - N/A   Overcast
5:29 PM 77.0 °F - 68.0 °F 74% 30.18 in 10.0 mi Variable 4.6 mph - N/A   Scattered Clouds
5:54 PM 77.0 °F - 68.0 °F 74% 30.15 in 10.0 mi SE 9.2 mph - N/A   Clear
6:54 PM 75.0 °F - 68.0 °F 79% 30.16 in 10.0 mi East 3.5 mph - N/A   Clear
7:54 PM 71.1 °F - 68.0 °F 90% 30.16 in 10.0 mi Calm Calm - N/A   Clear
8:54 PM 69.1 °F - 66.9 °F 93% 30.16 in 10.0 mi Calm Calm - N/A   Clear
9:44 PM 70.0 °F - 68.0 °F 93% 30.20 in 10.0 mi Calm Calm - N/A   Mostly Cloudy
9:54 PM 70.0 °F - 68.0 °F 93% 30.17 in 10.0 mi Calm Calm - N/A   Overcast
10:13 PM 70.0 °F - 68.0 °F 93% 30.20 in 10.0 mi Calm Calm - N/A   Overcast
10:52 PM 71.6 °F - 68.0 °F 88% 30.20 in 10.0 mi Calm Calm - N/A   Overcast
10:54 PM 71.1 °F - 68.0 °F 90% 30.18 in 10.0 mi Calm Calm - N/A   Overcast
11:33 PM 72.0 °F - 68.0 °F 87% 30.20 in 10.0 mi NE 5.8 mph - N/A   Overcast
11:54 PM 72.0 °F - 68.0 °F 87% 30.18 in 10.0 mi NE 3.5 mph - N/A   Overcast